Meteo Giornale » Osservazioni meteo Stati Uniti (USA) » Carlsbad Cavern City Air Terminal
ore: 03:53 - Osservazioni Meteo Carlsbad Cavern City Air Terminal
Lat. 32° 20' N Lon. 104° 15' W Alt. 1004 metri s.l.m.
25 °C
Sereno
Temp. 24 Ore
24 °C
38 °C
Sud-Est
9.3 Km/h
Dew point 14 °C
Umidità 50 %
Visibilità 10 Km
Il sole sorge alle ore 06:32
Il sole tramonta alle ore 19:21
| Data e Ora | Cielo e Fenomeni | T °C | DP °C | Um. % | Pres. hPa | Vis. km | Vento km/h | |
|---|---|---|---|---|---|---|---|---|
| Oggi h: 03:53 | Sereno | 25 | 14 | 50 | 1017 | 10 | SE 9.3 | |
| Oggi h: 02:53 | Sereno | 25 | 14 | 50 | 1018 | 10 | S/SO 13 | |
| Oggi h: 01:53 | Sereno | 26 | 14 | 47 | 1018 | 10 | S/SE 7.4 | |
| Oggi h: 00:53 | Poco Nuvoloso | 27 | 13 | 42 | 1017 | 10 | E/SE 13 | |
| Ieri h: 23:53 | Poco Nuvoloso | 28 | 13 | 39 | 1017 | 10 | S 14.8 | |
| Ieri h: 22:53 | Poco Nuvoloso | 30 | 14 | 37 | 1017 | 10 | S 20.3 | |
| Ieri h: 21:53 | Pioggia | 32 | 14 | 33 | 1017 | 13 | S/SE 24 | |
| Ieri h: 20:53 | Molto Nuvoloso | 33 | 12 | 27 | 1016 | 10 | SE 16.7 | |
| Ieri h: 19:53 | Molto Nuvoloso | 34 | 11 | 24 | 1014 | 10 | E/SE 18.5 | |
| Ieri h: 18:53 | Molto Nuvoloso | 36 | 11 | 22 | 1014 | 10 | E/SE 22.2 | |
| Ieri h: 17:53 | Molto Nuvoloso | 37 | 12 | 22 | 1014 | 10 | E 22.2 | |
| Ieri h: 16:53 | Molto Nuvoloso | 38 | 10 | 18 | 1014 | 10 | E 18.5 | |
| Ieri h: 15:53 | Molto Nuvoloso | 37 | 12 | 22 | 1015 | 10 | N 0 | |
| Ieri h: 14:53 | Coperto | 37 | 12 | 22 | 1016 | 10 | E 11.1 | |
| Ieri h: 13:53 | Coperto | 37 | 13 | 23 | 1016 | 10 | N 11.1 | |
| Ieri h: 12:53 | Nuvoloso | 36 | 14 | 26 | 1017 | 10 | SE 14.8 | |
| Ieri h: 11:53 | Poco Nuvoloso | 34 | 15 | 32 | 1018 | 10 | SE 22.2 | |
| Ieri h: 10:53 | Sereno | 32 | 16 | 38 | 1018 | 10 | S/SE 14.8 | |
| Ieri h: 09:53 | Sereno | 30 | 16 | 42 | 1018 | 10 | S/SE 16.7 | |
| Ieri h: 08:53 | Sereno | 28 | 16 | 48 | 1018 | 10 | S/SE 22.2 | |
| Ieri h: 07:53 | Sereno | 26 | 16 | 54 | 1018 | 10 | S/SE 20.3 | |
| Ieri h: 06:53 | Sereno | 24 | 14 | 53 | 1017 | 10 | S/SE 9.3 | |
| Ieri h: 05:53 | Sereno | 25 | 14 | 50 | 1017 | 10 | S/SE 14.8 | |
| Ieri h: 04:53 | Sereno | 25 | 14 | 50 | 1017 | 10 | S/SE 9.3 | |



